[[{"header":{"parameterUnit":"m.s-1","parameterCategory":1,"la1":30.2991,"la2":30.254,"lo1":-89.0895,"lo2":-89.0444,"dy":0.0017,"dx":0.0017,"nx":28,"ny":28,"refTime":"2025-08-15T21:00:00:Z","depth":0,"parameterNumber":2,"parameterNumberName":"U-component_of_WINDS"},"data":[0,0,0,0,0,0,0,0,0,0,0,0,0,0,0,0,0,0,0,0,0,0,0,0,0,0,0,0,0,0,0,0,0,0,0,0,0,0,0,0,0,0,0,0,0,0,0,0,0,0,0,0,0,0,0,0,0,0,3.411,3.411,0,3.4095,3.4095,3.4094,3.3979,3.3976,3.3973,3.3971,3.3954,3.3957,3.3959,0,0,0,0,0,0,0,0,0,0,0,0,0,3.4042,3.4043,3.411,3.411,3.411,3.4095,3.4095,3.4094,3.3979,3.3976,3.3972,3.3969,3.3954,3.3956,3.3959,0,0,0,0,0,0,0,0,0,0,0,0,0,3.4053,3.4044,3.411,3.4051,3.4045,3.4095,3.4095,3.4094,3.398,3.3976,3.3972,3.3968,3.3953,3.3956,3.3959,3.4065,0,0,3.3969,3.3971,0,0,0,0,0,0,0,0,3.4053,3.4056,3.406,3.4055,3.4049,3.4034,3.4064,3.4085,3.3981,3.4005,3.397,3.3966,3.3984,3.3985,3.3991,3.4064,3.4063,3.397,3.3972,3.3973,3.3974,0,0,0,0,0,0,0,3.4052,3.4056,3.4104,3.406,3.4053,3.4025,3.4022,3.4068,3.4019,3.4002,3.3994,3.3994,3.3981,3.3988,3.399,3.4063,3.397,3.3973,3.3975,3.3976,3.4226,3.423,0,0,0,0,0,0,3.406,3.4056,3.4104,3.4104,3.404,3.403,3.4027,3.4043,3.4018,3.401,3.3997,3.3988,3.3985,3.3986,3.3989,3.4113,3.3973,3.3976,3.3978,3.4221,3.4227,3.4232,0,0,0,0,0,0,3.4059,3.4065,3.4105,3.4078,3.4081,3.4036,3.4055,3.4045,3.4053,3.4014,3.4005,3.4014,3.3982,3.3984,3.4048,3.4111,3.3978,3.3981,3.4216,3.4223,3.4229,3.436,0,0,0,0,0,0,3.4057,3.4065,3.4104,3.4079,3.4083,3.4164,3.4059,3.4048,3.4059,3.4047,3.4027,3.402,3.3978,3.4043,3.4051,3.4113,3.3983,3.421,3.4219,3.4227,3.435,3.4371,3.4389,0,0,0,0,0,3.4055,3.4141,3.4107,3.4113,3.413,3.4167,3.4169,3.412,3.4064,3.4104,3.408,3.4021,3.4103,3.4051,3.4058,3.4122,3.4205,3.4216,3.4226,3.4342,3.4367,3.4388,0,0,0,0,0,0,3.4173,3.4136,3.4098,3.4178,3.4177,3.4148,3.4195,3.4148,3.4162,3.415,3.4088,3.4085,3.4158,3.4146,3.4089,3.4225,3.4144,3.4157,3.4229,3.4253,3.4272,3.4273,3.3986,0,0,0,0,0,3.4208,3.4242,3.4208,3.4282,3.4284,3.4241,3.4255,3.4217,3.4213,3.4212,3.4192,3.419,3.4216,3.4234,3.4255,3.4349,3.4344,3.4397,3.4416,3.4432,3.4443,3.4494,3.4518,3.4266,3.4266,3.4266,0,0,3.4281,3.4266,3.429,3.4306,3.43,3.4337,3.424,3.4282,3.4309,3.4218,3.4277,3.4263,3.4257,3.4337,3.4371,3.433,3.4512,3.4445,3.4458,3.4461,3.4507,3.4531,3.4553,3.4273,3.4272,3.4271,0,0,3.4433,3.4425,3.4486,3.4484,3.4478,3.4449,3.4465,3.4444,3.4431,3.449,3.4423,3.4455,3.45,3.4499,3.4505,3.4663,3.461,3.4671,3.4772,3.4822,3.4842,3.4859,3.4917,3.4938,3.4683,3.4683,3.4684,0,3.4524,3.4577,3.4524,3.4572,3.4582,3.4503,3.4566,3.4566,3.4567,3.4576,3.453,3.4587,3.4578,3.4658,3.4697,3.4703,3.472,3.4672,3.4843,3.486,3.4876,3.493,3.4951,3.4691,3.469,3.4689,3.4689,0,3.4691,3.4728,3.4779,3.4784,3.48,3.4855,3.4812,3.4835,3.4797,3.4774,3.4837,3.4823,3.4842,3.4858,3.4821,3.4934,3.4908,3.4854,3.4772,3.4908,3.4958,3.4978,3.4702,3.4699,3.4697,3.4695,0,0,3.4912,3.4891,3.4911,3.4913,3.4903,3.4932,3.4985,3.5004,3.5025,3.503,3.5074,3.5116,3.5067,3.5073,3.5036,3.5081,3.5209,3.5021,3.502,3.5057,3.5334,3.5375,3.54,3.5174,3.5178,3.5181,3.5335,0,3.5059,3.5148,3.5105,3.52,3.5235,3.5164,3.521,3.521,3.5191,3.5219,3.5197,3.5229,3.5161,3.5165,3.5206,3.5184,3.5264,3.5173,3.5215,3.5217,3.5218,3.5426,3.5468,3.5614,3.5354,3.5357,3.536,0,3.5241,3.5256,3.5355,3.5342,3.5355,3.5398,3.5414,3.5441,3.544,3.5424,3.5434,3.5387,3.544,3.536,3.5432,3.5371,3.5387,3.5379,3.5384,3.5385,3.5296,3.5433,3.5659,3.5681,3.5389,3.5387,3.5385,0,3.5394,3.5439,3.5505,3.5509,3.5495,3.5527,3.5523,3.5518,3.5534,3.5548,3.5558,3.5578,3.5589,3.5607,3.5567,3.5512,3.5646,3.5562,3.5634,3.5635,3.5664,3.5663,3.5896,3.5675,3.5675,3.5674,3.5674,0,3.5562,3.5626,3.5574,3.5614,3.5685,3.5635,3.5706,3.5694,3.5691,3.5729,3.5668,3.5705,3.5651,3.5683,3.5653,3.5718,3.5724,3.5712,3.5703,3.5717,3.5719,3.5726,3.5714,3.568,3.5679,3.5677,3.5676,0,3.5744,3.5712,3.5779,3.5762,3.5759,3.5812,3.5797,3.5835,3.5813,3.5862,3.5871,3.5837,3.5871,3.5835,3.5866,3.5846,3.5935,3.5911,3.5936,3.5929,3.6003,3.5997,3.6249,3.628,3.6039,3.6041,3.6043,0,3.5853,3.5901,3.589,3.5912,3.5912,3.5947,3.5964,3.5918,3.5938,3.5944,3.5981,3.6011,3.6032,3.6091,3.607,3.6094,3.6071,3.6158,3.6074,3.6088,3.6073,3.6071,3.6076,3.6174,3.6177,3.6179,3.6181,0,3.6051,3.6034,3.606,3.6083,3.6105,3.612,3.6131,3.6152,3.6105,3.6131,3.6167,3.6184,3.6218,3.6249,3.6268,3.6264,3.6216,3.6208,3.6226,3.6241,3.6253,3.6249,3.5982,3.6202,3.62,3.6199,3.6197,3.6197,3.6199,3.624,3.624,3.6273,3.6277,3.6289,3.6324,3.6309,3.6338,3.6363,3.6335,3.6379,3.638,3.6401,3.6403,3.6438,3.6401,3.6427,3.6433,3.6441,3.6452,3.6249,3.6441,3.644,3.644,3.6439,3.6439,0,3.6394,3.6392,3.6423,3.6441,3.6468,3.6422,3.6433,3.6458,3.6498,3.6504,3.6527,3.657,3.6601,3.6584,3.6611,3.6642,3.6621,3.665,3.6647,3.6648,3.6483,3.6465,3.6667,3.6667,3.6667,3.6667,3.6667,3.6667,3.6498,3.6565,3.6549,3.6619,3.6615,3.6659,3.667,3.6682,3.6686,3.6737,3.6763,3.6752,3.6749,3.6776,3.6803,3.6797,3.681,3.6848,3.6835,3.6681,3.6659,3.6637,3.662,3.6852,3.6852,3.6996,3.6998,3.6999]},{"header":{"parameterUnit":"m.s-1","parameterCategory":1,"la1":30.2991,"la2":30.254,"lo1":-89.0895,"lo2":-89.0444,"dy":0.0017,"dx":0.0017,"nx":28,"ny":28,"refTime":"2025-08-15T21:00:00:Z","depth":0,"parameterNumber":3,"parameterNumberName":"V-component_of_WINDS"},"data":[0,0,0,0,0,0,0,0,0,0,0,0,0,0,0,0,0,0,0,0,0,0,0,0,0,0,0,0,0,0,0,0,0,0,0,0,0,0,0,0,0,0,0,0,0,0,0,0,0,0,0,0,0,0,0,0,0,0,-1.1192,-1.1192,0,-1.1212,-1.1212,-1.1213,-1.12,-1.12,-1.1199,-1.1198,-1.1217,-1.1218,-1.1219,0,0,0,0,0,0,0,0,0,0,0,0,0,-1.1142,-1.1143,-1.1192,-1.1192,-1.1193,-1.1212,-1.1212,-1.1213,-1.12,-1.12,-1.1199,-1.1198,-1.1217,-1.1218,-1.1219,0,0,0,0,0,0,0,0,0,0,0,0,0,-1.1163,-1.1143,-1.1192,-1.1189,-1.1189,-1.1212,-1.1212,-1.1213,-1.12,-1.12,-1.1199,-1.1198,-1.1216,-1.1218,-1.1219,-1.1246,0,0,-1.1224,-1.1225,0,0,0,0,0,0,0,0,-1.1162,-1.1165,-1.1189,-1.1189,-1.1189,-1.1203,-1.1201,-1.1224,-1.1201,-1.1196,-1.1198,-1.1197,-1.1213,-1.1215,-1.122,-1.1247,-1.1248,-1.1224,-1.1225,-1.1226,-1.1226,0,0,0,0,0,0,0,-1.116,-1.1164,-1.12,-1.1189,-1.1189,-1.1186,-1.1188,-1.1206,-1.1209,-1.1196,-1.1195,-1.1198,-1.1213,-1.1219,-1.1221,-1.1248,-1.1224,-1.1225,-1.1226,-1.1227,-1.1299,-1.13,0,0,0,0,0,0,-1.1159,-1.1162,-1.1199,-1.1201,-1.1173,-1.1188,-1.119,-1.1199,-1.1209,-1.1209,-1.1199,-1.1197,-1.1217,-1.1219,-1.1221,-1.1254,-1.1226,-1.1227,-1.1228,-1.1298,-1.1299,-1.13,0,0,0,0,0,0,-1.1158,-1.1162,-1.1198,-1.1181,-1.1186,-1.1189,-1.12,-1.12,-1.1206,-1.1211,-1.1211,-1.1205,-1.1216,-1.1219,-1.124,-1.1254,-1.1228,-1.1229,-1.1297,-1.1299,-1.13,-1.1319,0,0,0,0,0,0,-1.1157,-1.1162,-1.1173,-1.1182,-1.1187,-1.1218,-1.1201,-1.1201,-1.1209,-1.1208,-1.1216,-1.1217,-1.1215,-1.1238,-1.1242,-1.1256,-1.123,-1.1296,-1.1298,-1.1299,-1.1317,-1.1321,-1.1324,0,0,0,0,0,-1.1155,-1.1176,-1.1173,-1.1178,-1.12,-1.1219,-1.1221,-1.122,-1.121,-1.1221,-1.1224,-1.1216,-1.1252,-1.1241,-1.1245,-1.1259,-1.1295,-1.1297,-1.1299,-1.1315,-1.132,-1.1324,0,0,0,0,0,0,-1.1168,-1.1177,-1.1174,-1.1199,-1.1208,-1.1216,-1.1229,-1.1225,-1.1236,-1.1234,-1.1232,-1.1234,-1.1256,-1.126,-1.1247,-1.1286,-1.1272,-1.1275,-1.1283,-1.1287,-1.1291,-1.1289,-1.1232,0,0,0,0,0,-1.1174,-1.1189,-1.1196,-1.1218,-1.1223,-1.1225,-1.1233,-1.1232,-1.1241,-1.1244,-1.1249,-1.1257,-1.1271,-1.1279,-1.1292,-1.1318,-1.1319,-1.133,-1.1333,-1.1336,-1.1339,-1.1353,-1.1358,-1.1308,-1.1308,-1.1308,0,0,-1.1185,-1.1193,-1.1202,-1.122,-1.1227,-1.1242,-1.1228,-1.1245,-1.1256,-1.1247,-1.1267,-1.1271,-1.1281,-1.1305,-1.1315,-1.1308,-1.1353,-1.1339,-1.1341,-1.1342,-1.1356,-1.1361,-1.1365,-1.1309,-1.1309,-1.1309,0,0,-1.1215,-1.1222,-1.1241,-1.1249,-1.126,-1.1262,-1.1267,-1.1276,-1.1278,-1.13,-1.1293,-1.1306,-1.1329,-1.1336,-1.1343,-1.1377,-1.137,-1.1381,-1.1399,-1.1413,-1.1417,-1.142,-1.1432,-1.1437,-1.1384,-1.1384,-1.1384,0,-1.1228,-1.1251,-1.1251,-1.1268,-1.1277,-1.1271,-1.129,-1.1297,-1.1311,-1.1317,-1.1309,-1.1338,-1.1344,-1.137,-1.1379,-1.1384,-1.1389,-1.1379,-1.1417,-1.142,-1.1423,-1.1435,-1.1439,-1.1385,-1.1385,-1.1385,-1.1385,0,-1.1267,-1.1283,-1.1297,-1.1312,-1.1322,-1.134,-1.1343,-1.1353,-1.1351,-1.1354,-1.1376,-1.1383,-1.1397,-1.1403,-1.1401,-1.1429,-1.1425,-1.1417,-1.1402,-1.1429,-1.144,-1.1444,-1.1387,-1.1386,-1.1386,-1.1386,0,0,-1.1302,-1.1319,-1.1324,-1.1331,-1.1344,-1.1356,-1.1375,-1.1389,-1.1398,-1.1409,-1.1423,-1.1444,-1.1437,-1.1445,-1.1444,-1.1456,-1.1483,-1.1447,-1.1447,-1.1453,-1.1514,-1.1519,-1.1524,-1.148,-1.148,-1.1481,-1.1513,0,-1.1332,-1.1365,-1.1366,-1.1395,-1.141,-1.1406,-1.1422,-1.1431,-1.1435,-1.1448,-1.1452,-1.1466,-1.1456,-1.1461,-1.1473,-1.1477,-1.1495,-1.1475,-1.1493,-1.1493,-1.1489,-1.153,-1.1535,-1.1565,-1.1517,-1.1518,-1.1519,0,-1.1371,-1.1384,-1.1415,-1.1427,-1.1433,-1.1447,-1.1462,-1.1474,-1.1485,-1.1487,-1.1497,-1.1494,-1.1512,-1.1499,-1.1524,-1.151,-1.1518,-1.1521,-1.1522,-1.1523,-1.1507,-1.1531,-1.1575,-1.1579,-1.1525,-1.1525,-1.1524,0,-1.1393,-1.1419,-1.1441,-1.1447,-1.1462,-1.1472,-1.1478,-1.1488,-1.1497,-1.151,-1.1516,-1.153,-1.1537,-1.1548,-1.155,-1.154,-1.1575,-1.1561,-1.1577,-1.1577,-1.1583,-1.1582,-1.1628,-1.159,-1.159,-1.1589,-1.1589,0,-1.1426,-1.1445,-1.1451,-1.1465,-1.1486,-1.1488,-1.1509,-1.1515,-1.1524,-1.1538,-1.1535,-1.1549,-1.155,-1.1564,-1.1565,-1.1586,-1.1589,-1.1591,-1.1591,-1.1591,-1.159,-1.1595,-1.1592,-1.1591,-1.159,-1.159,-1.159,0,-1.1454,-1.1459,-1.1483,-1.1495,-1.1499,-1.1514,-1.1524,-1.1537,-1.1542,-1.156,-1.1564,-1.157,-1.1586,-1.1589,-1.1608,-1.1609,-1.1634,-1.1632,-1.163,-1.1629,-1.1644,-1.1643,-1.1693,-1.17,-1.1658,-1.1659,-1.1659,0,-1.1473,-1.1488,-1.1503,-1.1513,-1.152,-1.1536,-1.1546,-1.1549,-1.1559,-1.1573,-1.1585,-1.1601,-1.1614,-1.164,-1.1645,-1.166,-1.1658,-1.1675,-1.166,-1.166,-1.1658,-1.1656,-1.1658,-1.1677,-1.1678,-1.1678,-1.1678,0,-1.1508,-1.151,-1.1525,-1.1541,-1.1554,-1.1566,-1.1578,-1.1586,-1.1591,-1.1603,-1.162,-1.163,-1.165,-1.1666,-1.1681,-1.1687,-1.1683,-1.1683,-1.1688,-1.1687,-1.1685,-1.1686,-1.1637,-1.1682,-1.1681,-1.1681,-1.1681,-1.1681,-1.1532,-1.1545,-1.1558,-1.1575,-1.1585,-1.1596,-1.1609,-1.1616,-1.1631,-1.1648,-1.1649,-1.1668,-1.1679,-1.1699,-1.1706,-1.172,-1.1715,-1.1721,-1.1722,-1.1724,-1.1725,-1.1684,-1.1723,-1.1723,-1.1723,-1.1723,-1.1723,0,-1.1566,-1.1574,-1.159,-1.1608,-1.1621,-1.1619,-1.1632,-1.1643,-1.166,-1.1671,-1.1685,-1.1705,-1.1721,-1.1729,-1.1745,-1.1755,-1.1753,-1.1758,-1.1757,-1.1759,-1.1729,-1.1724,-1.1759,-1.1759,-1.1759,-1.1759,-1.1759,-1.1759,-1.1585,-1.1607,-1.1612,-1.1639,-1.1647,-1.1667,-1.1675,-1.1685,-1.1695,-1.1718,-1.1731,-1.1737,-1.1747,-1.1764,-1.1778,-1.178,-1.1786,-1.1792,-1.1793,-1.1764,-1.1761,-1.1757,-1.1752,-1.1793,-1.1793,-1.1821,-1.1821,-1.1821]}]]